• Join FlightAware (Why Join?)
  • Login
  • US Flag 
01:42AM EDT


 

Airport Tracker/Info


-or-


 

Live Flight TrackerFlight Track Log ✈ EJA922 ✈ 30-Jun-2013 ✈ KSMO - KOAK

Flight Track Log - Related Links

Times and Time Zones

All times are in EDT time to prevent confusion due to time zone crossing. See the EJA922 flight status page for this flight to view local times or setup timezone preferences in your user account.

Time Position Orientation Groundspeed Altitude Reporting Facility
EDT Latitude Longitude Course Direction KTS MPH feet Rate Location/Type
02:45PM 34.0000 -118.5333 338° Northwest 220 253 3,300  Level Southern California TRACON
02:46PM 33.9958 -118.5714 262° West 227 261 4,600 2,340 Climbing Los Angeles Center
02:47PM 33.9961 -118.6592 270° West 260 299 7,000 1,260 Climbing Los Angeles Center
02:48PM 34.0353 -118.7342 302° West 283 326 7,300 540 Climbing Los Angeles Center
02:49PM 34.1036 -118.6958 25° Northeast 282 325 8,200 1,620 Climbing Los Angeles Center
02:50PM 34.1714 -118.6375 35° Northeast 293 337 10,700 2,160 Climbing Los Angeles Center
02:51PM 34.3184 -118.6092 338° Northwest  Level FlightAware Approximate
02:51PM 34.2567 -118.6136 13° North 331 381 12,700  Level Los Angeles Center
02:52PM 34.3808 -118.6494 347° North 397 457 14,600 1,740 Climbing Los Angeles Center
02:53PM 34.4883 -118.7019 338° Northwest 416 479 16,300 1,620 Climbing Los Angeles Center
02:54PM 34.5975 -118.7564 338° Northwest 425 489 18,000 1,680 Climbing Los Angeles Center
02:55PM 34.7078 -118.8144 337° Northwest 432 497 19,800 1,680 Climbing Los Angeles Center
02:56PM 34.8178 -118.8786 309° West 443 510 21,500 1,680 Climbing Los Angeles Center
02:57PM 34.8312 -118.8967 309° West  Level FlightAware Approximate
02:57PM 34.9267 -118.9817 322° Northwest 447 514 23,400  Level Los Angeles Center
02:59PM 35.1019 -119.1544 321° Northwest 454 522 26,300 1,500 Climbing Oakland Center
03:00PM 35.2025 -119.2539 321° Northwest 463 533 27,700 540 Climbing Oakland Center
03:02PM 35.3014 -119.3514 321° Northwest  Level FlightAware Approximate
03:02PM 35.4431 -119.4883 321° Northwest 514 592 28,000  Level Oakland Center
03:03PM 35.5564 -119.6008 321° Northwest 523 602 28,000  Level Oakland Center
03:04PM 35.6708 -119.7156 321° Northwest 532 612 28,000  Level Oakland Center
03:07PM 35.9436 -119.9908 321° Northwest 526 605 28,000  Level Los Angeles Center
03:07PM 36.0086 -120.0533 322° Northwest 523 602 28,000  Level Oakland Center
03:08PM 36.1428 -120.1892 321° Northwest 522 601 28,000  Level Oakland Center
03:09PM 36.2542 -120.3019 321° Northwest 519 597 28,000  Level Oakland Center
03:10PM 36.3672 -120.4186 320° Northwest 525 604 28,000 -60 Level Oakland Center
03:11PM 36.4775 -120.5308 321° Northwest 519 597 27,900 -1,080 Descending Oakland Center
03:12PM 36.5892 -120.6481 320° Northwest 524 603 25,900 -1,800 Descending Oakland Center
03:13PM 36.6964 -120.7592 320° Northwest 512 589 24,300 -1,680 Descending Oakland Center
03:14PM 36.7989 -120.8731 318° Northwest 500 575 22,500 -1,860 Descending Oakland Center
03:15PM 36.9206 -121.0122 318° Northwest 490 564 20,500 -2,040 Descending Oakland Center
03:16PM 37.0178 -121.1236 318° Northwest 477 549 18,400 -2,460 Descending Oakland Center
03:17PM 37.1119 -121.2331 317° Northwest 464 534 15,500 -2,940 Descending Oakland Center
03:19PM 37.1994 -121.3339 317° Northwest 435 501 12,400 -2,700 Descending Oakland Center
03:20PM 37.2783 -121.4272 317° Northwest 389 448 10,000 -1,620 Descending Oakland Center
03:21PM 37.3439 -121.5025 318° Northwest 331 381 9,100 -1,020 Descending Oakland Center
03:22PM 37.3983 -121.5667 317° Northwest 290 334 8,000 -1,080 Descending Oakland Center
03:23PM 37.4583 -121.6333 319° Northwest 286 329 6,900 -1,080 Descending Oakland Center
03:24PM 37.5294 -121.7158 317° Northwest 290 334 5,900 -780 Descending Oakland Center
03:25PM 37.5833 -121.7833 315° West 266 306 5,400 -420 Descending Northern Cal TRACON
03:26PM 37.6167 -121.8833 293° West 249 287 5,000 -600 Descending Northern Cal TRACON
03:27PM 37.6500 -121.9500 302° West 218 251 4,200 -1,200 Descending Northern Cal TRACON
03:28PM 37.6667 -122.0167 288° West 230 265 2,700 -1,200 Descending Northern Cal TRACON
03:29PM 37.6833 -122.1000 284° West 216 249 1,800 -900 Descending Northern Cal TRACON
03:30PM 37.7167 -122.1500 310° West 183 211 900 -900 Descending Northern Cal TRACON
03:31PM 37.7167 -122.2000 270° West 122 140 100 -840 Descending Northern Cal TRACON
03:33PM 37.7167 -122.2167 270° West  Level FlightAware Approximate
03:40PM 37.7213 -122.2207 270° West  Level Estimated
03:41PM 37.7167 -122.2167 270° West  Level FlightAware Approximate